User: anonymous   Login
Location: ????????
(38.4362°N, 22.8767°E)
Time: 15:31:55
(UTC+00:00)
Language:

Cosmos 1655 Rocket - Orbit

View from above orbital plane
View from above orbital plane
View from above satellite
View from above satellite

Ground track
Ground track

The orbit data is extracted from the following two-line orbital elements,

1 15752U 85041B   24165.75991936  .00000110  00000-0  10196-3 0  9997
2 15752  82.9502 222.8042 0023081 225.6462 134.2803 13.73230626956058
Epoch (UTC): 13 June 2024 18:14:17
Eccentricity: 0.0023081
inclination: 82.9502°
perigee height: 971 km
apogee height: 1005 km
right ascension of ascending node: 222.8042°
argument of perigee: 225.6462°
revolutions per day: 13.73230626
mean anomaly at epoch: 134.2803°
orbit number at epoch: 95605

The dashed part of the orbit path shows where the satellite is in the earth's shadow,  

DLR